RYR66WT LIRP-EBCI

Flight info

Callsign RYR66WT
Flight time 1h 30m
Altitude 18000
Route BEROK L153 OSBUL/N0442F360 DCT ABESI DCT LOKTA/N0438F350 DCT TEDGO/N0441F360 L608 MISGI Z104 ODVUX/N0386F280 Z104 GESLO N852 LNO
Aircraft B738/M-SDE3FGIJ1LRWY/SB1

Departure

Time 2026-05-07 19:34
Airport Pisa International Airport (LIRP)

Arrival

Time 2026-05-07 21:05
Airport Brussels South Charleroi Airport (EBCI)
Time Latitude Longitude Altitude Speed Heading
2026-05-07 18:51 43.69488 10.39671 15 ft 0 kts 322°
2026-05-07 19:27 43.69488 10.39670 14 ft 0 kts 325°
2026-05-07 19:27 43.69497 10.39679 14 ft 3 kts 80°
2026-05-07 19:27 43.69484 10.39738 14 ft 9 kts 106°
2026-05-07 19:28 43.69463 10.39853 14 ft 13 kts 112°
2026-05-07 19:28 43.69359 10.39894 13 ft 17 kts 173°
2026-05-07 19:28 43.69235 10.39916 13 ft 17 kts 173°
2026-05-07 19:28 43.69127 10.39868 13 ft 16 kts 215°
2026-05-07 19:29 43.69034 10.39772 12 ft 17 kts 218°
2026-05-07 19:29 43.68937 10.39662 12 ft 19 kts 220°
2026-05-07 19:29 43.68835 10.39532 11 ft 20 kts 224°
2026-05-07 19:29 43.68707 10.39431 11 ft 22 kts 211°
2026-05-07 19:30 43.68575 10.39296 10 ft 24 kts 219°
2026-05-07 19:30 43.68436 10.39151 9 ft 25 kts 216°
2026-05-07 19:30 43.68287 10.38997 8 ft 27 kts 216°
2026-05-07 19:30 43.68127 10.38834 7 ft 28 kts 216°
2026-05-07 19:31 43.67968 10.38671 7 ft 28 kts 217°
2026-05-07 19:31 43.67812 10.38510 6 ft 27 kts 216°
2026-05-07 19:31 43.67661 10.38353 5 ft 26 kts 216°
2026-05-07 19:31 43.67532 10.38224 4 ft 21 kts 216°
2026-05-07 19:32 43.67442 10.38131 4 ft 13 kts 216°
2026-05-07 19:32 43.67369 10.38134 4 ft 11 kts 130°
2026-05-07 19:32 43.67323 10.38222 4 ft 10 kts 126°
2026-05-07 19:32 43.67294 10.38299 4 ft 7 kts 69°
2026-05-07 19:33 43.67308 10.38322 4 ft 0 kts 36°
2026-05-07 19:33 43.67342 10.38356 4 ft 23 kts 37°
2026-05-07 19:33 43.67679 10.38704 6 ft 93 kts 36°
2026-05-07 19:34 43.68354 10.39402 9 ft 148 kts 36°
2026-05-07 19:34 43.69237 10.40340 450 ft 156 kts 37°
2026-05-07 19:34 43.70076 10.41269 1004 ft 156 kts 36°
2026-05-07 19:34 43.70959 10.42161 1515 ft 157 kts 33°
2026-05-07 19:35 43.71888 10.42876 1959 ft 155 kts 21°
2026-05-07 19:35 43.72986 10.43264 2126 ft 169 kts
2026-05-07 19:35 43.74217 10.43266 2377 ft 184 kts 353°
2026-05-07 19:35 43.75512 10.42813 2647 ft 202 kts 340°
2026-05-07 19:36 43.76880 10.42057 2984 ft 218 kts 338°
2026-05-07 19:36 43.78355 10.41252 3289 ft 236 kts 340°
2026-05-07 19:36 43.79930 10.40433 3696 ft 250 kts 340°
2026-05-07 19:36 43.81613 10.39567 4122 ft 262 kts 340°
2026-05-07 19:37 43.83330 10.38679 4694 ft 268 kts 339°
2026-05-07 19:37 43.85064 10.37777 5324 ft 271 kts 339°
2026-05-07 19:37 43.86844 10.36848 5950 ft 275 kts 339°
2026-05-07 19:37 43.88649 10.35961 6561 ft 279 kts 343°
2026-05-07 19:38 43.90572 10.35414 7233 ft 282 kts 352°
2026-05-07 19:38 43.92514 10.35132 7904 ft 284 kts 354°
2026-05-07 19:38 43.94473 10.34907 8612 ft 285 kts 354°
2026-05-07 19:38 43.96442 10.34660 9291 ft 288 kts 353°
2026-05-07 19:39 43.98442 10.34416 9984 ft 290 kts 356°
2026-05-07 19:39 44.00462 10.34373 10651 ft 294 kts
2026-05-07 19:39 44.02529 10.34467 11347 ft 297 kts
2026-05-07 19:39 44.04595 10.34594 12019 ft 301 kts
2026-05-07 19:40 44.06681 10.34715 12695 ft 304 kts
2026-05-07 19:40 44.08828 10.34824 13314 ft 310 kts
2026-05-07 19:40 44.11008 10.34924 13693 ft 324 kts
2026-05-07 19:40 44.13296 10.35025 14077 ft 338 kts
2026-05-07 19:41 44.15741 10.35131 14430 ft 353 kts
2026-05-07 19:41 44.18217 10.35142 14928 ft 363 kts 357°
2026-05-07 19:41 44.20751 10.34969 15636 ft 366 kts 355°
2026-05-07 19:41 44.23308 10.34710 16327 ft 370 kts 354°
2026-05-07 19:42 44.25868 10.34431 17024 ft 373 kts 354°
2026-05-07 19:42 44.28459 10.34159 17685 ft 376 kts 354°
2026-05-07 19:42 44.31070 10.33900 18308 ft 381 kts 354°
2026-05-07 19:42 44.33704 10.33653 18946 ft 384 kts 354°
2026-05-07 19:43 44.36377 10.33413 19554 ft 388 kts 353°
2026-05-07 19:43 44.39091 10.33172 20161 ft 391 kts 353°
2026-05-07 19:43 44.41817 10.32931 20737 ft 395 kts 353°
2026-05-07 19:43 44.44549 10.32690 21327 ft 398 kts 353°
2026-05-07 19:44 44.47323 10.32445 21911 ft 400 kts 353°
2026-05-07 19:44 44.50131 10.32196 22440 ft 404 kts 352°
2026-05-07 19:44 44.52930 10.31947 22976 ft 408 kts 352°
2026-05-07 19:44 44.55751 10.31696 23523 ft 411 kts 352°
2026-05-07 19:45 44.58632 10.31438 24022 ft 414 kts 352°
2026-05-07 19:45 44.61492 10.31184 24591 ft 416 kts 352°
2026-05-07 19:45 44.64407 10.30924 25066 ft 419 kts 352°
2026-05-07 19:45 44.67321 10.30664 25547 ft 422 kts 351°
2026-05-07 19:46 44.70260 10.30400 26006 ft 425 kts 351°
2026-05-07 19:46 44.73215 10.30135 26436 ft 428 kts 351°
2026-05-07 19:46 44.76195 10.29865 26874 ft 430 kts 350°
2026-05-07 19:46 44.79155 10.29435 27301 ft 430 kts 345°
2026-05-07 19:47 44.82075 10.28522 27700 ft 426 kts 336°
2026-05-07 19:47 44.84760 10.26986 28154 ft 419 kts 327°
2026-05-07 19:47 44.87288 10.25009 28581 ft 418 kts 322°
2026-05-07 19:47 44.89756 10.22824 29022 ft 417 kts 321°
2026-05-07 19:48 44.92180 10.20575 29438 ft 418 kts 320°
2026-05-07 19:48 44.94580 10.18314 29883 ft 419 kts 319°
2026-05-07 19:48 44.97012 10.16024 30408 ft 417 kts 319°
2026-05-07 19:48 44.99403 10.13786 30997 ft 415 kts 319°
2026-05-07 19:49 45.01807 10.11552 31514 ft 414 kts 319°
2026-05-07 19:49 45.04210 10.09325 31999 ft 413 kts 319°
2026-05-07 19:49 45.06604 10.07112 32404 ft 414 kts 319°
2026-05-07 19:49 45.09032 10.04873 32863 ft 413 kts 319°
2026-05-07 19:50 45.11439 10.02655 33229 ft 413 kts 319°
2026-05-07 19:50 45.13800 10.00479 33600 ft 414 kts 319°
2026-05-07 19:50 45.16237 9.98232 33986 ft 413 kts 319°
2026-05-07 19:50 45.18626 9.96028 34373 ft 413 kts 319°
2026-05-07 19:51 45.21051 9.93789 34697 ft 412 kts 319°
2026-05-07 19:51 45.23429 9.91589 34920 ft 413 kts 319°
2026-05-07 19:51 45.25836 9.89361 35185 ft 412 kts 319°
2026-05-07 19:51 45.28220 9.87153 35399 ft 413 kts 319°
2026-05-07 19:52 45.30632 9.84917 35630 ft 413 kts 319°
2026-05-07 19:52 45.33040 9.82685 35873 ft 412 kts 320°
2026-05-07 19:52 45.35419 9.80476 35974 ft 413 kts 320°
2026-05-07 19:52 45.37838 9.78224 35990 ft 416 kts 320°
2026-05-07 19:53 45.42647 9.73745 35991 ft 414 kts 320°
2026-05-07 19:53 45.47466 9.69250 35997 ft 414 kts 320°
2026-05-07 19:54 45.52258 9.64768 35997 ft 414 kts 320°
2026-05-07 19:54 45.57074 9.60255 35995 ft 414 kts 320°
2026-05-07 19:55 45.61877 9.55743 36007 ft 416 kts 320°
2026-05-07 19:55 45.66687 9.51218 36003 ft 414 kts 320°
2026-05-07 19:56 45.71500 9.46679 36011 ft 415 kts 321°
2026-05-07 19:56 45.76289 9.42153 36017 ft 416 kts 321°
2026-05-07 19:57 45.81127 9.37575 36025 ft 414 kts 321°
2026-05-07 19:57 45.85911 9.33034 36030 ft 416 kts 320°
2026-05-07 19:58 45.90760 9.28425 36022 ft 413 kts 320°
2026-05-07 19:58 45.95551 9.23860 36017 ft 414 kts 321°
2026-05-07 19:59 46.00346 9.19281 36017 ft 415 kts 321°
2026-05-07 19:59 46.05139 9.14695 36022 ft 414 kts 321°
2026-05-07 20:00 46.09925 9.10107 36016 ft 414 kts 321°
2026-05-07 20:00 46.14988 9.06064 36017 ft 424 kts 334°
2026-05-07 20:01 46.17851 9.04963 36024 ft 433 kts 345°
2026-05-07 20:01 46.20892 9.04596 36028 ft 439 kts 353°
2026-05-07 20:01 46.27014 9.04777 36018 ft 441 kts 357°
2026-05-07 20:02 46.33143 9.05261 36038 ft 442 kts 358°
2026-05-07 20:02 46.39243 9.05755 36040 ft 441 kts 358°
2026-05-07 20:03 46.45364 9.06219 36042 ft 439 kts 357°
2026-05-07 20:03 46.51454 9.06654 36038 ft 440 kts 357°
2026-05-07 20:04 46.57568 9.07078 36032 ft 440 kts 357°
2026-05-07 20:04 46.63651 9.07498 36054 ft 439 kts 357°
2026-05-07 20:05 46.69754 9.07914 36069 ft 440 kts 357°
2026-05-07 20:05 46.75857 9.08334 36072 ft 438 kts 357°
2026-05-07 20:06 46.81940 9.08752 36057 ft 439 kts 357°
2026-05-07 20:06 46.88013 9.09169 36053 ft 439 kts 357°
2026-05-07 20:07 46.94082 9.09589 36058 ft 438 kts 357°
2026-05-07 20:07 47.00186 9.10010 36062 ft 439 kts 357°
2026-05-07 20:08 47.06271 9.10432 36060 ft 439 kts 357°
2026-05-07 20:08 47.12241 9.10848 36056 ft 438 kts 358°
2026-05-07 20:09 47.18341 9.11274 36074 ft 438 kts 358°
2026-05-07 20:10 47.27470 9.11913 36078 ft 437 kts 358°
2026-05-07 20:10 47.33509 9.12336 36078 ft 437 kts 358°
2026-05-07 20:11 47.39602 9.12762 36073 ft 438 kts 358°
2026-05-07 20:11 47.45645 9.13189 36073 ft 437 kts 358°
2026-05-07 20:12 47.51710 9.13617 36070 ft 438 kts 358°
2026-05-07 20:12 47.57811 9.14048 36068 ft 437 kts 358°
2026-05-07 20:13 47.63840 9.14476 36066 ft 436 kts 358°
2026-05-07 20:13 47.69904 9.14908 36060 ft 436 kts 358°
2026-05-07 20:14 47.75936 9.15336 36062 ft 437 kts 358°
2026-05-07 20:14 47.82011 9.15770 36056 ft 437 kts 358°
2026-05-07 20:15 47.88081 9.16206 36056 ft 437 kts 358°
2026-05-07 20:15 47.94138 9.16640 36052 ft 437 kts 358°
2026-05-07 20:16 48.00172 9.17074 36049 ft 436 kts 358°
2026-05-07 20:16 48.06233 9.17510 36048 ft 436 kts 358°
2026-05-07 20:17 48.12103 9.17934 36051 ft 436 kts 358°
2026-05-07 20:17 48.18135 9.18397 36044 ft 437 kts
2026-05-07 20:18 48.24210 9.19296 36051 ft 439 kts
2026-05-07 20:18 48.30221 9.20392 36044 ft 438 kts
2026-05-07 20:19 48.36282 9.21492 36051 ft 439 kts
2026-05-07 20:19 48.42330 9.22557 36304 ft 440 kts
2026-05-07 20:19 48.45379 9.23086 36096 ft 438 kts
2026-05-07 20:20 48.48349 9.23600 36058 ft 431 kts
2026-05-07 20:20 48.54308 9.24620 36059 ft 436 kts
2026-05-07 20:21 48.60345 9.25265 36060 ft 431 kts 354°
2026-05-07 20:21 48.63268 9.24687 36064 ft 425 kts 342°
2026-05-07 20:21 48.66083 9.23330 36073 ft 422 kts 335°
2026-05-07 20:22 48.71505 9.19870 36073 ft 421 kts 332°
2026-05-07 20:22 48.76801 9.16226 36067 ft 420 kts 332°
2026-05-07 20:23 48.82142 9.12570 36064 ft 421 kts 333°
2026-05-07 20:23 48.87455 9.08984 36064 ft 422 kts 333°
2026-05-07 20:24 48.92813 9.05332 36060 ft 423 kts 332°
2026-05-07 20:24 48.98164 9.01604 36058 ft 423 kts 332°
2026-05-07 20:25 49.03486 8.97883 36059 ft 421 kts 332°
2026-05-07 20:25 49.08781 8.94182 36057 ft 421 kts 332°
2026-05-07 20:26 49.14104 8.90459 36060 ft 421 kts 333°
2026-05-07 20:26 49.19425 8.86763 36060 ft 422 kts 334°
2026-05-07 20:27 49.24936 8.83697 36062 ft 425 kts 339°
2026-05-07 20:27 49.30570 8.81011 36065 ft 425 kts 340°
2026-05-07 20:28 49.36208 8.78354 36062 ft 425 kts 340°
2026-05-07 20:28 49.41845 8.75652 36063 ft 424 kts 340°
2026-05-07 20:29 49.47460 8.72922 36064 ft 424 kts 340°
2026-05-07 20:29 49.53072 8.70170 36064 ft 424 kts 340°
2026-05-07 20:30 49.58661 8.67416 36066 ft 424 kts 340°
2026-05-07 20:30 49.64275 8.64640 36069 ft 424 kts 340°
2026-05-07 20:31 49.69788 8.61646 36069 ft 422 kts 334°
2026-05-07 20:31 49.74702 8.56865 36071 ft 418 kts 319°
2026-05-07 20:32 49.78997 8.50885 36078 ft 417 kts 315°
2026-05-07 20:32 49.83033 8.44534 36073 ft 415 kts 307°
2026-05-07 20:33 49.85891 8.36810 36073 ft 414 kts 292°
2026-05-07 20:33 49.87854 8.28496 36073 ft 414 kts 287°
2026-05-07 20:34 49.89604 8.20008 36071 ft 413 kts 287°
2026-05-07 20:34 49.91324 8.11541 36072 ft 413 kts 287°
2026-05-07 20:35 49.93049 8.03114 35885 ft 409 kts 287°
2026-05-07 20:35 49.93915 7.98905 35438 ft 410 kts 287°
2026-05-07 20:35 49.94774 7.94717 34858 ft 413 kts 287°
2026-05-07 20:35 49.95614 7.90457 34246 ft 414 kts 286°
2026-05-07 20:36 49.96420 7.86214 33550 ft 416 kts 286°
2026-05-07 20:36 49.97226 7.81896 32828 ft 418 kts 285°
2026-05-07 20:36 49.98028 7.77581 32142 ft 419 kts 286°
2026-05-07 20:36 49.98832 7.73253 31426 ft 420 kts 286°
2026-05-07 20:37 49.99661 7.68953 30977 ft 414 kts 287°
2026-05-07 20:37 50.00514 7.64735 30434 ft 411 kts 287°
2026-05-07 20:37 50.01379 7.60549 29872 ft 408 kts 288°
2026-05-07 20:37 50.02249 7.56365 29317 ft 405 kts 288°
2026-05-07 20:38 50.03104 7.52244 28775 ft 402 kts 287°
2026-05-07 20:38 50.03960 7.48107 28226 ft 399 kts 287°
2026-05-07 20:38 50.04796 7.44045 27675 ft 396 kts 287°
2026-05-07 20:38 50.05631 7.39966 27122 ft 393 kts 287°
2026-05-07 20:39 50.06443 7.35958 26604 ft 390 kts 287°
2026-05-07 20:39 50.07262 7.31950 25931 ft 391 kts 287°
2026-05-07 20:39 50.08215 7.28009 25122 ft 395 kts 291°
2026-05-07 20:39 50.09363 7.24125 24566 ft 392 kts 294°
2026-05-07 20:40 50.10566 7.20401 23999 ft 389 kts 295°
2026-05-07 20:40 50.11816 7.16671 23471 ft 386 kts 296°
2026-05-07 20:40 50.13070 7.12965 22909 ft 383 kts 296°
2026-05-07 20:40 50.14291 7.09340 22354 ft 380 kts 296°
2026-05-07 20:41 50.15502 7.05721 21839 ft 377 kts 296°
2026-05-07 20:41 50.16705 7.02100 21311 ft 373 kts 296°
2026-05-07 20:41 50.17874 6.98563 20780 ft 371 kts 296°
2026-05-07 20:41 50.19051 6.94982 20253 ft 368 kts 296°
2026-05-07 20:42 50.20208 6.91449 20067 ft 372 kts 296°
2026-05-07 20:42 50.21414 6.87756 20066 ft 383 kts 296°
2026-05-07 20:42 50.22615 6.84070 20067 ft 384 kts 296°
2026-05-07 20:42 50.23812 6.80391 20063 ft 383 kts 296°
2026-05-07 20:43 50.25022 6.76668 20029 ft 381 kts 296°
2026-05-07 20:43 50.26212 6.73003 19635 ft 377 kts 296°
2026-05-07 20:43 50.27395 6.69350 18986 ft 377 kts 296°
2026-05-07 20:43 50.28572 6.65709 18399 ft 375 kts 296°
2026-05-07 20:44 50.29725 6.62135 17827 ft 372 kts 296°
2026-05-07 20:44 50.30894 6.58509 17264 ft 370 kts 296°
2026-05-07 20:44 50.32035 6.54963 16714 ft 367 kts 296°
2026-05-07 20:44 50.33186 6.51383 16141 ft 365 kts 296°
2026-05-07 20:45 50.34306 6.47892 15611 ft 361 kts 296°
2026-05-07 20:45 50.35433 6.44379 15132 ft 357 kts 296°
2026-05-07 20:45 50.36536 6.40932 15058 ft 355 kts 296°
2026-05-07 20:45 50.37621 6.37541 15047 ft 343 kts 296°
2026-05-07 20:46 50.38627 6.34394 14944 ft 329 kts 295°
2026-05-07 20:46 50.39628 6.31255 14841 ft 316 kts 295°
2026-05-07 20:46 50.40599 6.28207 14751 ft 303 kts 295°
2026-05-07 20:46 50.41508 6.25346 14584 ft 294 kts 295°
2026-05-07 20:47 50.42357 6.22672 14265 ft 292 kts 295°
2026-05-07 20:47 50.43153 6.20162 13932 ft 290 kts 295°
2026-05-07 20:47 50.43889 6.17839 13623 ft 289 kts 295°
2026-05-07 20:47 50.44782 6.15020 13259 ft 288 kts 295°
2026-05-07 20:48 50.45669 6.12216 12888 ft 286 kts 296°
2026-05-07 20:48 50.46555 6.09412 12531 ft 284 kts 296°
2026-05-07 20:48 50.47427 6.06649 12157 ft 283 kts 296°
2026-05-07 20:48 50.48293 6.03906 11804 ft 281 kts 296°
2026-05-07 20:49 50.49155 6.01168 11437 ft 280 kts 296°
2026-05-07 20:49 50.50023 5.98410 11058 ft 279 kts 296°
2026-05-07 20:49 50.50880 5.95681 10687 ft 278 kts 296°
2026-05-07 20:49 50.51727 5.92983 10336 ft 276 kts 296°
2026-05-07 20:50 50.52568 5.90303 9982 ft 275 kts 296°
2026-05-07 20:50 50.53414 5.87603 9630 ft 273 kts 296°
2026-05-07 20:50 50.54254 5.84917 9264 ft 273 kts 296°
2026-05-07 20:50 50.55061 5.82337 8913 ft 272 kts 296°
2026-05-07 20:51 50.55886 5.79694 8560 ft 271 kts 296°
2026-05-07 20:51 50.56720 5.77018 8206 ft 270 kts 296°
2026-05-07 20:51 50.57537 5.74397 8059 ft 266 kts 296°
2026-05-07 20:51 50.58347 5.71762 8066 ft 270 kts 294°
2026-05-07 20:52 50.58968 5.68970 8067 ft 270 kts 285°
2026-05-07 20:52 50.59389 5.66070 8076 ft 270 kts 282°
2026-05-07 20:52 50.59750 5.63186 8062 ft 270 kts 281°
2026-05-07 20:52 50.60120 5.60285 8065 ft 269 kts 282°
2026-05-07 20:53 50.60493 5.57501 8067 ft 256 kts 283°
2026-05-07 20:53 50.60882 5.54686 8079 ft 268 kts 283°
2026-05-07 20:53 50.61286 5.51792 8068 ft 270 kts 283°
2026-05-07 20:53 50.61680 5.48960 8071 ft 270 kts 282°
2026-05-07 20:54 50.62087 5.46029 8071 ft 270 kts 282°
2026-05-07 20:54 50.62484 5.43170 8071 ft 269 kts 282°
2026-05-07 20:54 50.62884 5.40273 8072 ft 269 kts 282°
2026-05-07 20:54 50.63282 5.37386 8070 ft 269 kts 282°
2026-05-07 20:55 50.63658 5.34656 8072 ft 270 kts 282°
2026-05-07 20:55 50.64071 5.31652 8072 ft 270 kts 282°
2026-05-07 20:55 50.64337 5.28706 8025 ft 271 kts 271°
2026-05-07 20:55 50.64084 5.25777 7774 ft 271 kts 254°
2026-05-07 20:56 50.63509 5.22955 7540 ft 268 kts 251°
2026-05-07 20:56 50.62905 5.20165 7300 ft 267 kts 252°
2026-05-07 20:56 50.62351 5.17382 7042 ft 266 kts 253°
2026-05-07 20:56 50.61831 5.14584 6788 ft 266 kts 253°
2026-05-07 20:57 50.61339 5.11808 6539 ft 264 kts 253°
2026-05-07 20:57 50.60849 5.09031 6294 ft 262 kts 253°
2026-05-07 20:57 50.60361 5.06270 6047 ft 262 kts 254°
2026-05-07 20:57 50.59867 5.03482 5790 ft 262 kts 254°
2026-05-07 20:58 50.59378 5.00750 5537 ft 263 kts 253°
2026-05-07 20:58 50.58876 4.97965 5290 ft 261 kts 253°
2026-05-07 20:58 50.58384 4.95247 5083 ft 255 kts 253°
2026-05-07 20:58 50.57903 4.92607 4784 ft 254 kts 253°
2026-05-07 20:59 50.57401 4.89926 4494 ft 252 kts 253°
2026-05-07 20:59 50.56903 4.87341 4314 ft 246 kts 253°
2026-05-07 20:59 50.56399 4.84791 4136 ft 240 kts 252°
2026-05-07 20:59 50.55895 4.82321 3957 ft 235 kts 252°
2026-05-07 21:00 50.55382 4.79882 3781 ft 230 kts 251°
2026-05-07 21:00 50.54937 4.77827 3660 ft 227 kts 252°
2026-05-07 21:00 50.54529 4.75443 3507 ft 220 kts 255°
2026-05-07 21:00 50.54067 4.73196 3348 ft 213 kts 247°
2026-05-07 21:01 50.53476 4.71101 3196 ft 207 kts 244°
2026-05-07 21:01 50.52871 4.69094 3055 ft 204 kts 244°
2026-05-07 21:01 50.52292 4.67093 2981 ft 194 kts 245°
2026-05-07 21:01 50.51741 4.65164 2986 ft 196 kts 245°
2026-05-07 21:02 50.51182 4.63225 2850 ft 193 kts 245°
2026-05-07 21:02 50.50632 4.61324 2595 ft 192 kts 245°
2026-05-07 21:02 50.50084 4.59424 2337 ft 191 kts 244°
2026-05-07 21:02 50.49543 4.57548 2073 ft 188 kts 245°
2026-05-07 21:03 50.49016 4.55729 1824 ft 177 kts 245°
2026-05-07 21:03 50.48518 4.54013 1580 ft 168 kts 245°
2026-05-07 21:03 50.48067 4.52457 1361 ft 160 kts 244°
2026-05-07 21:03 50.47607 4.50863 1155 ft 160 kts 245°
2026-05-07 21:04 50.47150 4.49284 940 ft 159 kts 245°
2026-05-07 21:04 50.46698 4.47722 722 ft 156 kts 246°
2026-05-07 21:04 50.46254 4.46185 607 ft 145 kts 245°
2026-05-07 21:04 50.45890 4.44943 603 ft 99 kts 244°
2026-05-07 21:05 50.45670 4.44210 606 ft 38 kts 245°
2026-05-07 21:05 50.45644 4.44001 606 ft 12 kts 314°
2026-05-07 21:05 50.45716 4.44030 606 ft 12 kts 51°
2026-05-07 21:05 50.45767 4.44138 606 ft 12 kts 54°
2026-05-07 21:06 50.45819 4.44246 605 ft 12 kts 53°
2026-05-07 21:06 50.45873 4.44355 605 ft 12 kts 52°
2026-05-07 21:06 50.45929 4.44473 604 ft 15 kts 61°
2026-05-07 21:06 50.45977 4.44638 603 ft 18 kts 65°
2026-05-07 21:07 50.46038 4.44836 603 ft 21 kts 65°
2026-05-07 21:07 50.46101 4.45061 604 ft 23 kts 66°
2026-05-07 21:07 50.46171 4.45304 605 ft 25 kts 66°
2026-05-07 21:07 50.46246 4.45561 604 ft 25 kts 66°
2026-05-07 21:08 50.46323 4.45823 601 ft 26 kts 66°
2026-05-07 21:08 50.46402 4.46097 596 ft 27 kts 66°
2026-05-07 21:08 50.46482 4.46373 589 ft 26 kts 66°
2026-05-07 21:08 50.46547 4.46599 584 ft 18 kts 66°
2026-05-07 21:09 50.46595 4.46764 579 ft 13 kts 65°
2026-05-07 21:09 50.46646 4.46795 579 ft 7 kts 339°
2026-05-07 21:09 50.46695 4.46792 579 ft 7 kts 32°
2026-05-07 21:09 50.46727 4.46871 577 ft 9 kts 63°
2026-05-07 21:10 50.46760 4.46990 573 ft 12 kts 66°
2026-05-07 21:10 50.46797 4.47080 570 ft 5 kts
2026-05-07 21:10 50.46830 4.47060 570 ft 3 kts 335°
2026-05-07 21:10 50.46847 4.47047 571 ft 1 kts 335°
2026-05-07 21:11 50.46853 4.47043 571 ft 0 kts 335°